Hourly Weather Otradnaya

Today, 30 July, Friday

Time Temperature Precipitation Wind Pressure Humidity
00:00 +18°C° 0 mm 2 mps 737 mmHg 97%
01:00 +17°C° 0 mm 2 mps 737 mmHg 97%
02:00 +17°C° 0 mm 2 mps 737 mmHg 97%
03:00 +17°C° 0 mm 2 mps 737 mmHg 96%
04:00 +17°C° 0 mm 2 mps 737 mmHg 95%
05:00 +17°C° 0 mm 2 mps 737 mmHg 94%
06:00 +18°C° 0 mm 3 mps 737 mmHg 91%
07:00 +19°C° 0 mm 3 mps 737 mmHg 87%
08:00 +20°C° 0 mm 3 mps 737 mmHg 85%
09:00 +21°C° 0.1 mm 3 mps 737 mmHg 73%
10:00 +23°C° 0.1 mm 4 mps 737 mmHg 62%
11:00 +26°C° 0.1 mm 5 mps 737 mmHg 50%
12:00 +25°C° 0 mm 5 mps 737 mmHg 53%
13:00 +23°C° 0 mm 5 mps 737 mmHg 57%
14:00 +23°C° 0 mm 5 mps 737 mmHg 59%
15:00 +23°C° 0 mm 5 mps 737 mmHg 59%
16:00 +22°C° 0 mm 4 mps 737 mmHg 58%
17:00 +22°C° 0 mm 4 mps 737 mmHg 57%
18:00 +21°C° 0 mm 4 mps 737 mmHg 60%
19:00 +20°C° 0 mm 3 mps 737 mmHg 64%
20:00 +19°C° 0 mm 3 mps 737 mmHg 67%
21:00 +19°C° 0 mm 3 mps 737 mmHg 70%
22:00 +18°C° 0 mm 4 mps 737 mmHg 73%
23:00 +17°C° 0 mm 4 mps 737 mmHg 75%

Tomorrow, 31 July, Saturday

Time Temperature Precipitation Wind Pressure Humidity
00:00 +15°C° 0 mm 4 mps 737 mmHg 79%
01:00 +16°C° 0 mm 3 mps 737 mmHg 83%
02:00 +14°C° 0 mm 3 mps 737 mmHg 86%
03:00 +14°C° 0 mm 4 mps 737 mmHg 86%
04:00 +14°C° 0 mm 4 mps 737 mmHg 85%
05:00 +14°C° 0 mm 4 mps 737 mmHg 84%
06:00 +16°C° 0 mm 5 mps 737 mmHg 75%
07:00 +17°C° 0 mm 5 mps 737 mmHg 67%
08:00 +20°C° 0 mm 6 mps 737 mmHg 58%
09:00 +21°C° 0 mm 6 mps 737 mmHg 53%
10:00 +23°C° 0 mm 6 mps 737 mmHg 48%
11:00 +24°C° 0 mm 7 mps 738 mmHg 43%
12:00 +26°C° 0 mm 6 mps 738 mmHg 42%
13:00 +26°C° 0 mm 6 mps 738 mmHg 41%
14:00 +27°C° 0 mm 6 mps 738 mmHg 40%
15:00 +27°C° 0 mm 5 mps 738 mmHg 43%
16:00 +27°C° 0 mm 5 mps 738 mmHg 45%
17:00 +26°C° 0 mm 4 mps 738 mmHg 48%
18:00 +25°C° 0 mm 3 mps 738 mmHg 55%
19:00 +22°C° 0 mm 3 mps 738 mmHg 62%
20:00 +20°C° 0 mm 2 mps 738 mmHg 68%
21:00 +20°C° 0 mm 2 mps 738 mmHg 69%
22:00 +20°C° 0 mm 2 mps 738 mmHg 71%
23:00 +19°C° 0 mm 2 mps 738 mmHg 72%

Day after tomorrow, 1 August, Sunday

Time Temperature Precipitation Wind Pressure Humidity
00:00 +19°C° 0.1 mm 3 mps 738 mmHg 74%
01:00 +19°C° 0.1 mm 3 mps 738 mmHg 77%
02:00 +19°C° 0.1 mm 4 mps 738 mmHg 80%
03:00 +18°C° 0.3 mm 4 mps 738 mmHg 85%
04:00 +18°C° 0.3 mm 4 mps 737 mmHg 89%
05:00 +18°C° 0.3 mm 4 mps 737 mmHg 94%
06:00 +19°C° 0.1 mm 4 mps 737 mmHg 91%
07:00 +20°C° 0.1 mm 5 mps 738 mmHg 88%
08:00 +20°C° 0.1 mm 6 mps 738 mmHg 84%
09:00 +22°C° 0 mm 5 mps 738 mmHg 72%
10:00 +25°C° 0 mm 5 mps 738 mmHg 60%
11:00 +27°C° 0 mm 5 mps 738 mmHg 48%
12:00 +27°C° 0 mm 5 mps 738 mmHg 45%
13:00 +27°C° 0 mm 5 mps 738 mmHg 43%
14:00 +28°C° 0 mm 5 mps 739 mmHg 40%
15:00 +27°C° 0 mm 5 mps 738 mmHg 42%
16:00 +27°C° 0 mm 4 mps 738 mmHg 44%
17:00 +27°C° 0 mm 4 mps 738 mmHg 46%
18:00 +25°C° 0 mm 3 mps 738 mmHg 52%
19:00 +22°C° 0 mm 3 mps 738 mmHg 57%
20:00 +20°C° 0 mm 2 mps 738 mmHg 63%
21:00 +20°C° 0 mm 2 mps 738 mmHg 63%
22:00 +21°C° 0 mm 1 mps 738 mmHg 62%
23:00 +20°C° 0 mm 1 mps 738 mmHg 62%

2 August, Monday

Time Temperature Precipitation Wind Pressure Humidity
00:00 +20°C° 0 mm 1 mps 738 mmHg 64%
01:00 +19°C° 0 mm 1 mps 738 mmHg 66%
02:00 +19°C° 0 mm 1 mps 738 mmHg 68%
03:00 +18°C° 0 mm 1 mps 737 mmHg 70%
04:00 +17°C° 0 mm 2 mps 737 mmHg 71%
05:00 +17°C° 0 mm 2 mps 737 mmHg 73%
06:00 +17°C° 0.2 mm 2 mps 736 mmHg 76%
07:00 +18°C° 0.2 mm 2 mps 735 mmHg 78%
08:00 +18°C° 0.2 mm 2 mps 735 mmHg 81%
09:00 +18°C° 1.1 mm 3 mps 735 mmHg 84%
10:00 +19°C° 1.1 mm 3 mps 734 mmHg 87%
11:00 +20°C° 1.1 mm 3 mps 734 mmHg 90%
12:00 +20°C° 0.2 mm 4 mps 734 mmHg 86%
13:00 +21°C° 0.2 mm 5 mps 734 mmHg 81%
14:00 +22°C° 0.2 mm 6 mps 734 mmHg 77%
15:00 +20°C° 0 mm 6 mps 735 mmHg 79%
16:00 +19°C° 0 mm 6 mps 735 mmHg 81%
17:00 +17°C° 0 mm 6 mps 735 mmHg 83%
18:00 +17°C° 0 mm 5 mps 735 mmHg 87%
19:00 +17°C° 0 mm 3 mps 736 mmHg 91%
20:00 +16°C° 0 mm 2 mps 737 mmHg 94%
21:00 +16°C° 0 mm 2 mps 737 mmHg 94%
22:00 +16°C° 0 mm 2 mps 737 mmHg 94%
23:00 +14°C° 0 mm 3 mps 737 mmHg 94%

3 August, Tuesday

Time Temperature Precipitation Wind Pressure Humidity
00:00 +16°C° 0 mm 3 mps 737 mmHg 93%
01:00 +16°C° 0 mm 3 mps 737 mmHg 92%
02:00 +15°C° 0 mm 4 mps 737 mmHg 92%
03:00 +15°C° 0 mm 4 mps 737 mmHg 91%
04:00 +15°C° 0 mm 4 mps 738 mmHg 90%
05:00 +15°C° 0 mm 4 mps 738 mmHg 89%
06:00 +15°C° 0 mm 4 mps 738 mmHg 85%
07:00 +15°C° 0 mm 4 mps 739 mmHg 81%
08:00 +17°C° 0 mm 4 mps 739 mmHg 77%
09:00 +18°C° 0 mm 4 mps 739 mmHg 70%
10:00 +19°C° 0 mm 4 mps 739 mmHg 63%
11:00 +21°C° 0 mm 5 mps 740 mmHg 57%
12:00 +21°C° 0.1 mm 5 mps 740 mmHg 57%
13:00 +21°C° 0.1 mm 5 mps 740 mmHg 56%
14:00 +21°C° 0.1 mm 5 mps 740 mmHg 56%
15:00 +21°C° 0.2 mm 5 mps 740 mmHg 60%
16:00 +20°C° 0.2 mm 5 mps 740 mmHg 63%
17:00 +20°C° 0.2 mm 5 mps 740 mmHg 66%
18:00 +19°C° 0.1 mm 4 mps 741 mmHg 73%
19:00 +17°C° 0.1 mm 3 mps 741 mmHg 80%
20:00 +15°C° 0.1 mm 2 mps 741 mmHg 87%
21:00 +15°C° 0 mm 2 mps 742 mmHg 87%
22:00 +14°C° 0 mm 2 mps 742 mmHg 88%
23:00 +14°C° 0 mm 2 mps 742 mmHg 88%

4 August, Wednesday

Time Temperature Precipitation Wind Pressure Humidity
00:00 +13°C° 0 mm 2 mps 742 mmHg 89%
01:00 +12°C° 0 mm 2 mps 743 mmHg 89%
02:00 +12°C° 0 mm 2 mps 743 mmHg 89%
03:00 +12°C° 0 mm 2 mps 743 mmHg 89%
04:00 +12°C° 0 mm 1 mps 743 mmHg 88%
05:00 +12°C° 0 mm 1 mps 744 mmHg 88%
06:00 +13°C° 0 mm 1 mps 744 mmHg 82%
07:00 +15°C° 0 mm 1 mps 744 mmHg 75%
08:00 +18°C° 0 mm 1 mps 744 mmHg 69%
09:00 +20°C° 0 mm 1 mps 744 mmHg 62%
10:00 +20°C° 0 mm 0 mps 744 mmHg 55%
11:00 +21°C° 0 mm 0 mps 744 mmHg 49%
12:00 +24°C° 0 mm 1 mps 744 mmHg 46%
13:00 +24°C° 0 mm 1 mps 744 mmHg 43%
14:00 +25°C° 0 mm 1 mps 744 mmHg 40%
15:00 +25°C° 0 mm 1 mps 744 mmHg 42%
16:00 +25°C° 0 mm 1 mps 744 mmHg 44%
17:00 +24°C° 0 mm 1 mps 743 mmHg 46%
18:00 +23°C° 0 mm 2 mps 743 mmHg 49%
19:00 +21°C° 0 mm 2 mps 743 mmHg 53%
20:00 +19°C° 0 mm 2 mps 743 mmHg 56%
21:00 +19°C° 0 mm 2 mps 743 mmHg 58%
22:00 +18°C° 0 mm 2 mps 743 mmHg 60%
23:00 +17°C° 0 mm 2 mps 743 mmHg 62%
Show more